Time,TemperatureF,DewpointF,PressureIn,WindDirection,WindDirectionDegrees,WindSpeedMPH,WindSpeedGustMPH,Humidity,HourlyPrecipIn,Conditions,Clouds,dailyrainin,SoftwareType,DateUTC
2013-12-22 00:07:00,65.2,63.0,30.09,SE,143,0.0,-999.0,91,-99.99,,,0.00,weatherlink.com 1.10,2013-12-22 05:07:00,
2013-12-22 00:22:00,64.9,62.0,30.10,SE,143,0.0,-999.0,91,-99.99,,,0.00,weatherlink.com 1.10,2013-12-22 05:22:00,
2013-12-22 00:37:00,64.6,62.0,30.10,SE,143,0.0,-999.0,91,-99.99,,,0.00,weatherlink.com 1.10,2013-12-22 05:37:00,
2013-12-22 00:52:00,64.6,62.0,30.09,SE,143,0.0,-999.0,91,-99.99,,,0.00,weatherlink.com 1.10,2013-12-22 05:52:00,
2013-12-22 01:07:00,64.6,62.0,30.10,SE,143,0.0,-999.0,91,-99.99,,,0.00,weatherlink.com 1.10,2013-12-22 06:07:00,
2013-12-22 01:22:00,64.7,62.0,30.09,SE,143,0.0,-999.0,91,-99.99,,,0.00,weatherlink.com 1.10,2013-12-22 06:22:00,
2013-12-22 01:38:00,64.7,62.0,30.09,SE,143,0.0,-999.0,91,-99.99,,,0.00,weatherlink.com 1.10,2013-12-22 06:38:00,
2013-12-22 01:53:00,64.8,62.0,30.09,SE,143,0.0,-999.0,91,-99.99,,,0.00,weatherlink.com 1.10,2013-12-22 06:53:00,
2013-12-22 02:08:00,64.9,62.0,30.10,SE,143,1.0,-999.0,91,-99.99,,,0.00,weatherlink.com 1.10,2013-12-22 07:08:00,
2013-12-22 02:23:00,65.5,63.0,30.10,SE,143,1.0,-999.0,91,-99.99,,,0.00,weatherlink.com 1.10,2013-12-22 07:23:00,
2013-12-22 02:38:00,65.5,63.0,30.10,SE,143,0.0,-999.0,91,-99.99,,,0.00,weatherlink.com 1.10,2013-12-22 07:38:00,
2013-12-22 02:53:00,65.4,63.0,30.09,SE,143,1.0,-999.0,91,-99.99,,,0.00,weatherlink.com 1.10,2013-12-22 07:53:00,
2013-12-22 03:08:00,65.3,63.0,30.09,SE,143,1.0,-999.0,91,-99.99,,,0.00,weatherlink.com 1.10,2013-12-22 08:08:00,
2013-12-22 03:23:00,65.4,63.0,30.09,SE,143,2.0,-999.0,91,-99.99,,,0.00,weatherlink.com 1.10,2013-12-22 08:23:00,
2013-12-22 03:38:00,65.3,63.0,30.09,SE,143,0.0,-999.0,91,-99.99,,,0.00,weatherlink.com 1.10,2013-12-22 08:38:00,
2013-12-22 03:53:00,65.2,63.0,30.09,SE,143,1.0,-999.0,91,-99.99,,,0.00,weatherlink.com 1.10,2013-12-22 08:53:00,
2013-12-22 04:08:00,65.7,63.0,30.09,SSW,192,2.0,-999.0,91,-99.99,,,0.00,weatherlink.com 1.10,2013-12-22 09:08:00,
2013-12-22 04:23:00,66.1,64.0,30.09,South,182,1.0,-999.0,91,-99.99,,,0.00,weatherlink.com 1.10,2013-12-22 09:23:00,
2013-12-22 04:38:00,65.7,63.0,30.09,South,185,1.0,-999.0,91,-99.99,,,0.00,weatherlink.com 1.10,2013-12-22 09:38:00,
2013-12-22 04:54:00,65.4,63.0,30.09,South,171,2.0,-999.0,90,-99.99,,,0.00,weatherlink.com 1.10,2013-12-22 09:54:00,
2013-12-22 05:09:00,64.9,62.0,30.09,South,171,0.0,-999.0,91,-99.99,,,0.00,weatherlink.com 1.10,2013-12-22 10:09:00,
2013-12-22 05:24:00,64.4,62.0,30.09,South,171,2.0,-999.0,91,-99.99,,,0.00,weatherlink.com 1.10,2013-12-22 10:24:00,
2013-12-22 05:39:00,64.1,62.0,30.09,South,184,1.0,-999.0,91,-99.99,,,0.00,weatherlink.com 1.10,2013-12-22 10:39:00,
2013-12-22 05:54:00,63.7,61.0,30.09,SSE,159,0.0,-999.0,91,-99.99,,,0.00,weatherlink.com 1.10,2013-12-22 10:54:00,
2013-12-22 06:09:00,63.1,60.0,30.08,SSE,159,0.0,-999.0,90,-99.99,,,0.00,weatherlink.com 1.10,2013-12-22 11:09:00,
2013-12-22 06:24:00,62.6,60.0,30.09,SSE,159,0.0,-999.0,90,-99.99,,,0.00,weatherlink.com 1.10,2013-12-22 11:24:00,
2013-12-22 06:39:00,62.2,60.0,30.09,SSE,159,0.0,-999.0,91,-99.99,,,0.00,weatherlink.com 1.10,2013-12-22 11:39:00,
2013-12-22 06:54:00,62.1,60.0,30.10,SSE,159,0.0,-999.0,91,-99.99,,,0.00,weatherlink.com 1.10,2013-12-22 11:54:00,
2013-12-22 07:09:00,62.5,60.0,30.10,SSE,159,1.0,-999.0,90,-99.99,,,0.00,weatherlink.com 1.10,2013-12-22 12:09:00,
2013-12-22 07:24:00,63.1,60.0,30.11,SSW,203,0.0,-999.0,90,-99.99,,,0.00,weatherlink.com 1.10,2013-12-22 12:24:00,
2013-12-22 07:39:00,63.2,60.0,30.11,SSW,203,1.0,-999.0,90,-99.99,,,0.00,weatherlink.com 1.10,2013-12-22 12:39:00,
2013-12-22 07:55:00,63.3,60.0,30.12,SSW,202,1.0,-999.0,90,-99.99,,,0.00,weatherlink.com 1.10,2013-12-22 12:55:00,
2013-12-22 08:10:00,63.2,60.0,30.11,SE,144,1.0,-999.0,90,-99.99,,,0.00,weatherlink.com 1.10,2013-12-22 13:10:00,
2013-12-22 08:25:00,63.1,60.0,30.12,SE,144,0.0,-999.0,90,-99.99,,,0.00,weatherlink.com 1.10,2013-12-22 13:25:00,
2013-12-22 08:40:00,62.9,60.0,30.12,SE,144,0.0,-999.0,90,-99.99,,,0.00,weatherlink.com 1.10,2013-12-22 13:40:00,
2013-12-22 08:55:00,63.1,60.0,30.12,SSE,167,0.0,-999.0,90,-99.99,,,0.00,weatherlink.com 1.10,2013-12-22 13:55:00,
2013-12-22 09:10:00,63.5,61.0,30.12,SSE,151,0.0,-999.0,90,-99.99,,,0.00,weatherlink.com 1.10,2013-12-22 14:10:00,
2013-12-22 09:25:00,63.6,61.0,30.13,South,187,3.0,-999.0,90,-99.99,,,0.00,weatherlink.com 1.10,2013-12-22 14:25:00,
2013-12-22 09:40:00,63.7,61.0,30.13,SE,146,1.0,-999.0,90,-99.99,,,0.00,weatherlink.com 1.10,2013-12-22 14:40:00,
2013-12-22 09:55:00,63.7,61.0,30.14,SSE,154,1.0,-999.0,90,-99.99,,,0.00,weatherlink.com 1.10,2013-12-22 14:55:00,
2013-12-22 10:10:00,63.8,61.0,30.14,SE,146,0.0,-999.0,90,-99.99,,,0.00,weatherlink.com 1.10,2013-12-22 15:10:00,
2013-12-22 10:25:00,64.0,61.0,30.14,SE,146,1.0,-999.0,90,-99.99,,,0.00,weatherlink.com 1.10,2013-12-22 15:25:00,
2013-12-22 10:40:00,63.9,61.0,30.14,South,171,0.0,-999.0,90,-99.99,,,0.00,weatherlink.com 1.10,2013-12-22 15:40:00,
2013-12-22 10:55:00,64.5,62.0,30.14,SSE,156,2.0,-999.0,90,-99.99,,,0.00,weatherlink.com 1.10,2013-12-22 15:55:00,
2013-12-22 11:11:00,65.0,62.0,30.14,South,187,3.0,-999.0,90,-99.99,,,0.00,weatherlink.com 1.10,2013-12-22 16:11:00,
2013-12-22 11:26:00,65.6,63.0,30.14,SSW,196,0.0,-999.0,90,-99.99,,,0.00,weatherlink.com 1.10,2013-12-22 16:26:00,
2013-12-22 11:41:00,65.8,63.0,30.14,WSW,248,2.0,-999.0,90,-99.99,,,0.00,weatherlink.com 1.10,2013-12-22 16:41:00,
2013-12-22 11:56:00,66.5,64.0,30.14,SSW,211,4.0,-999.0,90,-99.99,,,0.00,weatherlink.com 1.10,2013-12-22 16:56:00,
2013-12-22 12:11:00,67.3,64.0,30.13,South,187,3.0,-999.0,90,-99.99,,,0.00,weatherlink.com 1.10,2013-12-22 17:11:00,
2013-12-22 12:26:00,66.4,63.0,30.12,South,172,4.0,-999.0,89,-99.99,,,0.00,weatherlink.com 1.10,2013-12-22 17:26:00,
2013-12-22 12:41:00,66.0,63.0,30.11,SSW,194,3.0,-999.0,90,-99.99,,,0.00,weatherlink.com 1.10,2013-12-22 17:41:00,
2013-12-22 12:56:00,65.8,63.0,30.11,SSW,192,2.0,-999.0,89,-99.99,,,0.00,weatherlink.com 1.10,2013-12-22 17:56:00,
2013-12-22 13:11:00,65.7,62.0,30.11,SSW,194,3.0,-999.0,89,-99.99,,,0.00,weatherlink.com 1.10,2013-12-22 18:11:00,
2013-12-22 13:26:00,65.3,62.0,30.10,SSW,194,0.0,-999.0,89,-99.99,,,0.00,weatherlink.com 1.10,2013-12-22 18:26:00,
2013-12-22 13:41:00,64.9,62.0,30.11,South,178,4.0,-999.0,89,-99.99,,,0.00,weatherlink.com 1.10,2013-12-22 18:41:00,
2013-12-22 13:56:00,64.9,62.0,30.10,South,191,0.0,-999.0,89,-99.99,,,0.00,weatherlink.com 1.10,2013-12-22 18:56:00,
2013-12-22 14:11:00,64.8,62.0,30.10,South,172,5.0,-999.0,89,-99.99,,,0.00,weatherlink.com 1.10,2013-12-22 19:11:00,
2013-12-22 14:27:00,65.0,62.0,30.10,SSE,157,4.0,-999.0,89,-99.99,,,0.00,weatherlink.com 1.10,2013-12-22 19:27:00,
2013-12-22 14:42:00,65.4,62.0,30.10,South,191,1.0,-999.0,89,-99.99,,,0.00,weatherlink.com 1.10,2013-12-22 19:42:00,
2013-12-22 14:57:00,65.9,63.0,30.10,SSW,196,6.0,-999.0,89,-99.99,,,0.00,weatherlink.com 1.10,2013-12-22 19:57:00,
2013-12-22 15:12:00,66.2,63.0,30.09,SE,144,0.0,-999.0,89,-99.99,,,0.00,weatherlink.com 1.10,2013-12-22 20:12:00,
2013-12-22 15:27:00,66.2,63.0,30.09,South,186,3.0,-999.0,89,-99.99,,,0.00,weatherlink.com 1.10,2013-12-22 20:27:00,
2013-12-22 15:42:00,65.7,62.0,30.09,South,180,0.0,-999.0,89,-99.99,,,0.00,weatherlink.com 1.10,2013-12-22 20:42:00,
2013-12-22 15:57:00,65.5,62.0,30.09,South,178,2.0,-999.0,89,-99.99,,,0.00,weatherlink.com 1.10,2013-12-22 20:57:00,
2013-12-22 16:12:00,65.8,63.0,30.09,South,171,2.0,-999.0,89,-99.99,,,0.00,weatherlink.com 1.10,2013-12-22 21:12:00,
2013-12-22 16:27:00,66.0,63.0,30.09,SSE,166,1.0,-999.0,89,-99.99,,,0.00,weatherlink.com 1.10,2013-12-22 21:27:00,
2013-12-22 16:42:00,66.0,63.0,30.09,SSE,154,2.0,-999.0,89,-99.99,,,0.00,weatherlink.com 1.10,2013-12-22 21:42:00,
2013-12-22 16:57:00,66.3,63.0,30.09,SSE,154,1.0,-999.0,88,-99.99,,,0.00,weatherlink.com 1.10,2013-12-22 21:57:00,
2013-12-22 17:12:00,66.6,63.0,30.09,SE,135,5.0,-999.0,88,-99.99,,,0.00,weatherlink.com 1.10,2013-12-22 22:12:00,
2013-12-22 17:27:00,66.5,63.0,30.09,SE,137,2.0,-999.0,88,-99.99,,,0.00,weatherlink.com 1.10,2013-12-22 22:27:00,
2013-12-22 17:43:00,66.0,62.0,30.09,SE,138,0.0,-999.0,88,-99.99,,,0.00,weatherlink.com 1.10,2013-12-22 22:43:00,
2013-12-22 17:58:00,65.2,62.0,30.09,SE,138,0.0,-999.0,88,-99.99,,,0.00,weatherlink.com 1.10,2013-12-22 22:58:00,
2013-12-22 18:13:00,65.0,61.0,30.09,SE,137,0.0,-999.0,88,-99.99,,,0.00,weatherlink.com 1.10,2013-12-22 23:13:00,
2013-12-22 18:28:00,65.3,62.0,30.10,SE,138,0.0,-999.0,88,-99.99,,,0.00,weatherlink.com 1.10,2013-12-22 23:28:00,
2013-12-22 18:43:00,65.4,62.0,30.11,SSE,158,1.0,-999.0,88,-99.99,,,0.00,weatherlink.com 1.10,2013-12-22 23:43:00,
2013-12-22 18:58:00,65.3,62.0,30.11,SSE,158,0.0,-999.0,88,-99.99,,,0.00,weatherlink.com 1.10,2013-12-22 23:58:00,
2013-12-22 19:13:00,65.3,62.0,30.11,SSE,158,0.0,-999.0,88,-99.99,,,0.00,weatherlink.com 1.10,2013-12-23 00:13:00,
2013-12-22 19:28:00,65.1,62.0,30.11,SSE,158,0.0,-999.0,88,-99.99,,,0.00,weatherlink.com 1.10,2013-12-23 00:28:00,
2013-12-22 19:43:00,64.9,61.0,30.11,SSE,158,0.0,-999.0,88,-99.99,,,0.00,weatherlink.com 1.10,2013-12-23 00:43:00,
2013-12-22 19:58:00,64.8,61.0,30.11,SSE,158,0.0,-999.0,88,-99.99,,,0.00,weatherlink.com 1.10,2013-12-23 00:58:00,
2013-12-22 20:13:00,64.5,61.0,30.12,SSE,158,0.0,-999.0,88,-99.99,,,0.00,weatherlink.com 1.10,2013-12-23 01:13:00,
2013-12-22 20:28:00,64.4,61.0,30.12,SSE,158,0.0,-999.0,88,-99.99,,,0.00,weatherlink.com 1.10,2013-12-23 01:28:00,
2013-12-22 20:44:00,64.5,61.0,30.12,SSE,158,1.0,-999.0,88,-99.99,,,0.00,weatherlink.com 1.10,2013-12-23 01:44:00,
2013-12-22 20:59:00,64.6,61.0,30.12,SSE,158,0.0,-999.0,87,-99.99,,,0.00,weatherlink.com 1.10,2013-12-23 01:59:00,
2013-12-22 21:14:00,64.7,61.0,30.12,SSE,158,0.0,-999.0,87,-99.99,,,0.00,weatherlink.com 1.10,2013-12-23 02:14:00,
2013-12-22 21:29:00,64.6,61.0,30.12,SSE,158,0.0,-999.0,87,-99.99,,,0.00,weatherlink.com 1.10,2013-12-23 02:29:00,
2013-12-22 21:44:00,64.5,61.0,30.12,SSE,158,0.0,-999.0,87,-99.99,,,0.00,weatherlink.com 1.10,2013-12-23 02:44:00,
2013-12-22 21:59:00,64.6,61.0,30.12,SSE,158,0.0,-999.0,87,-99.99,,,0.00,weatherlink.com 1.10,2013-12-23 02:59:00,
2013-12-22 22:14:00,64.6,61.0,30.12,SSE,158,1.0,-999.0,87,-99.99,,,0.00,weatherlink.com 1.10,2013-12-23 03:14:00,
2013-12-22 22:29:00,64.9,61.0,30.12,SSE,151,2.0,-999.0,87,-99.99,,,0.00,weatherlink.com 1.10,2013-12-23 03:29:00,
2013-12-22 22:44:00,64.8,61.0,30.12,SSE,151,1.0,-999.0,87,-99.99,,,0.00,weatherlink.com 1.10,2013-12-23 03:44:00,
2013-12-22 22:59:00,64.5,61.0,30.12,SSE,151,0.0,-999.0,87,-99.99,,,0.00,weatherlink.com 1.10,2013-12-23 03:59:00,
2013-12-22 23:14:00,64.2,60.0,30.12,SSE,151,1.0,-999.0,87,-99.99,,,0.00,weatherlink.com 1.10,2013-12-23 04:14:00,
2013-12-22 23:29:00,64.5,60.0,30.12,SSE,151,1.0,-999.0,86,-99.99,,,0.00,weatherlink.com 1.10,2013-12-23 04:29:00,
2013-12-22 23:45:00,64.8,61.0,30.13,SW,225,2.0,-999.0,86,-99.99,,,0.00,weatherlink.com 1.10,2013-12-23 04:45:00,